Wind_Speed
17 5 8 3 9 9 11 12 13 7 12 17 9 7 5 8 10 8 9 11 13 11 11 13 3 8 12 16 20 23 21 22 23 24 24 23 22 20 19 18 18 18 17 16
12 10 11 12 11 11 11 11 10 13 14 14 7 6 6 7 9 9 7 9 9 13 7 3 6 5 8 12 15 15 18 21 20 20 22 23 22 20 19 19 18 17 18 17
15 17 15 17 14 14 14 14 14 14 6 10 7 5 6 4 7 8 8 6 4 4 7 8 5 3 7 9 13 15 17 18 18 19 19 20 21 21 20 19 18 18 17 17
11 13 20 7 12 6 10 15 11 10 8 9 9 5 2 3 3 8 8 8 7 7 5 7 8 4 8 9 12 14 15 15 16 18 18 18 20 20 19 18 19 18 17 16
13 13 14 10 6 9 11 13 16 10 4 8 9 6 7 2 3 5 8 10 10 11 7 5 9 6 7 7 12 14 14 14 14 15 16 17 18 19 19 19 18 17 16 16
8 13 17 15 10 7 1 10 13 12 7 8 8 10 9 5 5 7 12 12 10 11 8 6 6 6 5 5 7 9 12 13 14 13 13 14 16 19 20 19 18 17 16 16
11 12 8 9 3 1 11 1 6 9 8 10 9 9 2 3 6 6 7 11 9 6 8 7 6 5 5 5 5 6 4 3 10 12 11 11 13 16 17 18 19 19 17 17
9 13 13 8 5 7 5 3 5 6 9 11 13 6 3 4 3 4 8 10 14 9 9 10 7 7 5 8 6 6 4 7 8 9 11 10 11 12 14 16 16 15 15 15
8 6 5 5 7 5 4 4 4 6 9 11 11 6 4 2 7 9 9 11 16 16 11 13 12 10 9 9 9 9 8 4 6 3 5 5 6 5 8 12 14 13 15 14
6 4 6 5 6 1 4 4 4 5 8 12 8 9 11 2 5 6 7 11 12 15 15 14 16 13 12 10 8 4 7 3 4 3 2 6 5 4 5 2 3 3 3 6
10 12 8 9 7 2 4 2 4 5 4 10 5 3 7 7 7 9 8 8 10 11 13 15 15 16 18 14 9 4 2 3 8 7 5 4 3 0 2 1 2 4 1 4
5 4 6 1 6 4 5 5 2 4 5 9 6 4 4 6 10 11 12 9 9 11 13 12 12 13 16 16 16 9 8 2 5 6 9 7 8 8 10 5 5 3 7 4
6 3 3 7 3 4 6 4 2 2 5 6 4 6 6 7 9 9 7 10 11 11 12 13 12 13 15 15 15 16 6 6 3 7 5 2 5 5 7 7 2 5 5 5
1 2 5 6 7 8 5 5 3 8 11 7 12 7 9 6 7 9 10 9 10 11 13 12 13 14 16 16 13 13 11 10 6 5 7 8 2 6 8 7 13 13 6 10
6 5 7 3 7 8 7 6 8 8 10 2 6 9 9 9 4 5 9 12 11 11 13 13 13 14 17 15 12 10 9 11 8 6 6 7 7 6 5 3 2 4 7 13
7 6 6 8 9 9 9 9 6 11 12 13 13 5 2 3 4 7 8 9 16 15 14 14 11 15 17 13 11 10 8 11 9 7 9 9 9 9 8 6 3 6 5 7
7 9 8 9 9 10 9 10 6 6 14 13 12 10 7 3 6 6 7 6 11 9 11 13 13 12 13 11 10 8 8 9 10 7 10 12 13 11 11 8 8 10 16 18
3 2 2 2 5 5 4 8 4 4 7 8 8 4 8 4 6 7 8 8 4 8 13 13 15 15 16 13 11 9 9 9 11 12 12 13 9 12 14 14 16 15 11 10
3 4 3 4 4 3 3 7 8 5 8 10 6 4 7 5 4 8 8 11 7 10 13 12 11 10 13 17 12 13 13 16 18 16 12 11 10 12 11 11 13 13 10 8
4 3 3 3 4 5 3 4 3 8 8 8 9 5 3 4 4 8 10 10 10 11 11 14 10 12 13 17 17 16 17 15 14 14 15 13 12 12 12 15 13 14 14 13
6 5 3 3 4 3 1 3 6 8 8 7 8 8 7 4 2 1 6 11 12 9 12 14 14 13 15 17 18 18 18 19 20 19 16 15 16 16 15 16 17 17 17 16
8 9 7 6 5 6 5 6 8 10 12 10 8 8 9 10 8 9 11 10 12 13 15 15 16 15 14 14 18 20 18 19 22 21 20 20 19 21 18 19 20 21 19 19
13 13 11 9 10 11 11 8 10 11 9 10 8 6 6 4 5 10 11 10 12 13 15 15 15 12 13 15 14 15 19 20 20 25 25 24 22 22 22 18 19 22 22 23
16 14 15 13 13 13 14 12 10 8 9 8 5 6 5 5 8 10 10 12 11 13 14 11 12 11 13 14 15 14 14 16 21 18 20 23 26 28 29 26 30 26 24 25
16 17 15 14 13 10 10 11 13 11 9 6 6 3 5 7 12 9 7 7 2 5 7 10 11 11 12 12 13 14 15 15 15 15 22 20 19 17 18 19 23 25 24 23
12 12 14 8 13 12 13 12 10 9 7 6 3 5 7 6 6 6 5 5 6 8 8 10 9 10 10 10 11 11 11 11 11 13 13 12 10 12 17 19 16 15 11 11
8 12 14 11 11 7 8 8 11 12 11 10 9 6 7 4 4 4 4 7 7 6 6 9 9 8 8 6 7 8 10 8 9 9 9 10 10 10 11 10 11 12 12 10
Wind_Direction
273 129 284 309 200 203 239 263 274 243 306 77 86 80 31 28 343 22 19 17 7 38 17 15 245 217 197 217 213 207 198 207 213 216 219 222 223 224 223 220 224 226 227 229
263 258 240 254 227 245 257 271 274 276 285 90 87 73 36 20 5 353 33 23 5 3 14 6 341 309 220 228 236 229 212 216 220 219 222 223 225 226 226 227 226 226 225 228
253 246 236 243 246 253 255 245 248 248 17 14 346 54 6 16 355 339 353 350 17 332 347 342 336 299 273 254 226 227 227 223 222 224 225 226 225 224 224 223 229 226 224 222
263 263 244 226 265 292 285 239 251 259 318 27 351 360 332 327 26 333 336 334 337 328 334 314 304 337 305 285 256 233 222 224 224 226 227 225 225 225 222 219 224 226 222 219
247 246 261 246 176 235 247 250 345 251 360 353 322 313 261 113 33 359 332 326 329 328 319 303 300 324 316 289 259 228 225 218 219 220 220 223 224 224 224 218 222 223 220 214
237 252 258 62 60 19 327 234 23 2 343 319 326 270 62 36 22 17 341 340 334 331 313 323 327 333 328 323 311 206 216 219 215 213 214 220 221 222 222 219 223 225 219 213
232 252 257 72 75 192 234 58 37 9 344 330 300 310 42 13 14 24 347 332 334 345 1 349 337 328 40 18 7 349 327 278 206 202 204 217 227 221 221 221 231 223 225 221
232 259 239 4 252 270 50 76 27 10 342 330 322 333 296 50 33 33 12 360 355 10 19 23 6 338 343 39 4 346 310 232 223 206 208 206 217 223 223 223 225 229 223 223
336 36 72 53 38 46 13 350 13 342 331 322 305 292 326 4 342 348 25 6 360 354 23 21 18 14 359 349 347 356 17 168 186 145 188 133 130 183 233 230 239 226 226 222
303 251 263 217 136 299 355 7 12 354 333 317 295 309 288 277 339 335 349 8 0 2 5 16 7 10 5 351 338 329 347 98 95 99 173 190 191 154 185 89 167 141 243 338
262 266 272 238 246 264 324 313 339 0 350 331 332 261 316 32 8 356 339 360 12 3 6 3 4 10 7 3 352 306 291 284 249 242 274 307 332 12 183 250 169 124 14 326
262 32 302 51 53 139 255 305 339 359 357 340 315 21 43 5 19 14 350 342 4 10 0 360 358 357 359 359 360 341 309 333 11 224 249 243 248 259 260 242 302 266 240 317
266 42 323 295 182 249 260 256 352 71 32 302 13 30 49 26 32 337 10 10 2 4 357 352 354 4 358 356 356 354 352 337 330 301 94 189 213 231 264 246 218 111 116 57
217 195 236 233 252 236 227 206 177 108 83 70 37 33 21 49 22 5 4 11 13 5 11 360 355 8 356 351 349 351 357 353 347 330 295 297 328 337 336 291 219 214 86 90
203 219 272 203 207 214 226 254 168 128 145 136 61 347 23 10 39 47 10 11 20 14 11 8 5 7 358 350 348 352 1 359 351 355 357 337 308 307 312 300 311 223 163 107
212 242 255 256 262 246 226 238 221 169 159 163 158 173 278 314 26 42 47 12 33 4 8 17 2 20 360 347 358 3 352 7 10 19 32 20 17 22 33 42 19 105 105 134
255 256 245 255 237 231 203 232 218 197 188 176 154 159 167 174 107 92 70 62 76 9 9 27 346 28 3 8 19 12 7 5 9 21 32 37 29 33 47 47 55 58 82 66
310 316 247 303 297 234 198 254 189 192 175 157 158 169 106 75 79 74 76 69 66 56 23 18 11 25 16 16 29 31 35 35 34 33 28 34 20 35 44 51 56 57 50 44
127 159 167 234 196 162 164 202 198 127 166 145 153 141 118 115 71 71 63 66 52 42 23 14 17 36 34 31 42 40 41 39 40 37 34 32 31 46 44 45 58 65 53 42
130 154 182 195 188 222 184 169 164 134 156 153 139 139 117 127 130 111 92 70 44 36 33 31 30 43 41 43 46 48 47 47 45 44 42 47 46 45 50 54 57 64 64 56
111 105 86 130 147 177 156 153 141 121 140 138 140 139 137 139 88 282 123 73 42 42 47 45 40 34 44 47 47 49 51 54 54 49 45 47 48 50 46 52 53 54 61 63
129 111 109 99 108 122 117 120 113 122 120 96 87 117 122 129 122 90 61 73 59 48 47 47 47 44 41 62 55 55 57 58 62 61 52 51 53 58 51 51 53 55 64 68
121 112 113 104 108 106 108 107 127 125 121 123 106 98 91 49 142 137 103 71 70 56 57 51 41 43 56 59 65 77 69 70 65 69 69 63 60 61 63 66 62 61 61 67
125 121 122 120 111 117 120 132 124 121 115 112 148 138 152 175 124 106 107 97 89 80 61 60 44 43 57 58 60 62 74 82 71 74 66 71 70 71 72 71 74 76 74 71
123 124 134 142 141 135 132 134 139 141 148 133 142 132 56 42 83 81 99 101 88 287 86 55 48 38 53 58 71 71 67 71 82 85 78 80 82 74 71 71 73 69 75 73
153 142 141 157 127 151 156 162 159 145 156 140 129 72 88 95 111 122 87 68 91 63 54 47 28 28 60 50 56 57 69 79 76 76 78 79 86 81 79 74 79 77 77 66
133 147 143 145 133 139 132 155 160 158 169 142 143 169 135 102 98 109 101 99 89 78 51 29 43 31 20 26 66 75 71 72 60 74 77 77 71 69 76 75 81 78 72 78
Height
742 746 748 743 747 748 757 749 753 737 736 741 753 763 770 767 760 754 753 752 742 735 739 739 740 742 746 751 754 758 763 768 772 775 779 783 785 789 792 793 796 799 801 802
763 745 750 757 751 753 753 750 750 747 746 739 751 754 764 771 772 766 763 764 760 758 755 754 754 750 752 755 758 759 761 765 769 772 774 778 782 785 788 790 792 794 797 799
776 753 752 768 755 753 751 747 750 760 750 745 750 757 770 773 778 776 774 769 769 769 767 763 759 759 758 756 757 758 760 763 766 768 771 774 778 780 783 786 789 790 793 796
770 759 779 750 736 738 745 740 740 744 748 760 764 765 770 774 776 779 778 775 773 772 770 768 763 762 763 760 757 756 758 761 763 766 768 771 774 777 780 782 783 787 790 792
778 772 758 746 747 757 758 759 748 747 754 763 769 767 767 772 776 780 779 776 774 772 769 768 767 763 761 758 756 755 754 757 759 762 764 767 769 773 776 778 779 783 785 788
771 781 779 763 759 756 759 776 778 778 770 772 780 775 777 777 780 782 783 779 774 771 768 766 765 763 760 757 753 751 752 753 756 758 760 762 764 767 770 772 775 778 780 782
773 777 762 762 766 766 785 790 791 793 793 792 785 778 783 779 782 783 784 780 775 772 769 768 765 763 759 760 758 756 754 753 753 755 757 759 761 764 767 768 770 773 775 778
769 774 779 772 769 779 789 786 792 798 801 798 794 784 778 781 783 781 781 780 776 772 771 768 767 765 762 762 760 758 755 755 755 755 756 755 758 761 764 765 767 769 771 774
771 777 778 778 784 788 788 790 793 799 801 801 795 788 785 783 786 781 780 779 778 775 772 772 769 768 765 764 760 757 755 754 755 755 757 756 756 760 762 764 764 766 767 770
778 769 769 774 783 790 791 792 797 800 803 799 795 793 788 780 781 781 781 780 779 778 774 772 771 769 768 765 763 762 761 758 757 757 756 757 758 758 761 763 761 764 767 766
779 774 774 777 779 785 792 795 796 799 801 799 796 796 789 784 785 785 782 781 781 779 778 776 774 772 769 767 766 763 762 759 759 759 760 760 759 760 762 762 761 759 764 768
774 774 778 782 785 790 795 795 795 798 799 799 797 794 793 789 789 789 788 785 783 781 781 779 778 776 773 770 767 765 760 756 757 756 757 759 760 761 761 756 766 757 759 766
773 776 783 785 792 793 794 795 796 796 799 798 799 797 794 796 794 794 791 790 788 785 784 781 779 778 776 773 769 766 764 762 759 758 756 757 759 759 758 759 760 757 757 754
779 785 788 789 791 790 792 795 798 798 800 801 801 801 798 798 799 800 797 792 790 788 786 786 783 781 778 775 772 769 766 763 761 760 759 756 753 754 754 753 756 758 755 747
782 784 785 786 790 792 793 793 796 798 800 800 800 806 806 802 800 801 799 795 792 792 791 787 786 785 781 778 774 771 768 765 762 760 759 758 757 755 753 753 752 754 757 750
779 782 783 785 786 787 789 789 788 793 798 799 801 804 807 807 802 800 799 798 794 796 796 792 791 787 783 782 775 772 771 768 765 762 759 758 758 757 753 753 754 750 757 755
780 781 781 783 785 784 787 787 788 789 792 795 797 799 801 804 802 803 801 800 800 804 800 796 796 790 792 784 777 776 773 769 767 766 762 759 760 760 758 758 756 751 749 749
783 786 788 789 788 785 789 789 787 790 791 792 797 800 797 800 802 802 803 800 803 803 800 797 793 787 790 786 781 779 776 773 769 767 765 764 766 761 760 759 755 756 757 756
785 788 790 791 789 790 791 793 790 792 793 795 797 799 797 799 799 801 804 803 806 803 801 795 792 795 793 787 784 780 775 773 770 770 771 773 773 767 767 766 763 762 763 765
787 789 790 790 791 790 791 793 791 794 793 795 799 801 800 800 801 801 803 805 803 801 800 795 794 794 794 788 785 782 779 779 779 777 779 779 777 776 774 772 771 770 769 772
787 790 792 792 793 794 794 794 795 797 799 799 799 802 804 804 803 802 800 801 805 803 800 800 799 795 792 790 789 788 787 786 785 783 785 784 782 781 781 777 776 776 775 776
789 792 796 796 797 796 797 797 800 801 803 803 803 803 804 805 807 807 806 806 807 805 803 802 800 798 796 793 794 794 795 793 792 792 791 789 788 786 787 785 783 782 782 782
791 796 799 800 802 801 802 804 805 806 806 807 807 807 806 805 805 805 808 810 809 808 806 805 802 800 799 797 798 800 801 800 801 800 798 796 795 794 793 793 794 792 792 792
794 797 801 803 804 804 806 808 810 810 810 810 810 810 809 805 806 808 812 812 813 811 812 809 806 804 802 801 801 802 802 804 805 805 804 805 804 802 800 800 798 798 799 800
793 798 802 804 806 807 808 809 810 812 812 812 811 810 809 808 809 811 811 813 813 812 812 812 809 807 805 805 805 807 806 806 807 810 811 810 809 809 808 807 807 806 806 808
794 795 799 800 800 804 806 809 810 812 814 815 815 815 814 814 814 813 815 814 813 815 814 813 814 810 810 808 808 808 808 809 809 811 812 812 813 813 813 813 811 813 815 813
792 794 797 800 804 805 805 808 809 812 812 815 817 817 817 816 817 815 816 815 817 817 818 817 817 816 812 811 810 811 812 813 812 813 813 814 814 813 814 814 814 815 817 819